Powrót do katalogu

STARLINK-34833

AktywnyŁącznośćVLEO
NORAD 65218·PAYLOAD·🇺🇸 United States

Wystrzelony Aug 14, 2025 z Cape Canaveral Space Force Station

Loading…

Następne Przeloty (najbliższe 24 godziny)

TLE

ŚwieżeSource: CelesTrak SupGP

Epoka: Sep 15, 2026, 03:16 UTC

1 65218C 25176W   26258.13659722  .00073497  00000+0  21714-2 0  2585
2 65218  53.1593 348.9242 0001122  92.6132 129.3184 15.34355912    18

Śledź STARLINK-34833 w czasie rzeczywistym z AllMySat

Download on the App Store